TimeMDT,TemperatureF,Dew PointF,Humidity,Sea Level PressureIn,VisibilityMPH,Wind Direction,Wind SpeedMPH,Gust SpeedMPH,PrecipitationIn,Events,Conditions,WindDirDegrees,DateUTC
12:53 AM,62.1,48.9,62,30.08,10.0,Calm,Calm,-,N/A,,Clear,0,2013-09-11 06:53:00
1:53 AM,61.0,50.0,67,30.09,10.0,Calm,Calm,-,N/A,,Scattered Clouds,0,2013-09-11 07:53:00
2:53 AM,57.0,51.1,81,30.10,10.0,North,3.5,-,N/A,,Clear,10,2013-09-11 08:53:00
3:53 AM,57.0,50.0,77,30.10,10.0,North,3.5,-,N/A,,Clear,10,2013-09-11 09:53:00
4:53 AM,55.9,48.0,75,30.12,10.0,SE,3.5,-,N/A,,Clear,140,2013-09-11 10:53:00
5:53 AM,57.0,46.9,69,30.13,10.0,SE,3.5,-,N/A,,Clear,130,2013-09-11 11:53:00
6:53 AM,54.0,48.9,83,30.15,10.0,North,4.6,-,N/A,,Partly Cloudy,350,2013-09-11 12:53:00
7:53 AM,57.9,48.9,72,30.17,10.0,NNE,5.8,-,N/A,,Clear,20,2013-09-11 13:53:00
8:53 AM,64.9,48.0,54,30.19,10.0,NW,4.6,-,N/A,,Clear,320,2013-09-11 14:53:00
9:53 AM,70.0,54.0,57,30.20,10.0,NW,5.8,-,N/A,,Clear,310,2013-09-11 15:53:00
10:53 AM,75.0,48.9,40,30.21,10.0,West,6.9,-,N/A,,Clear,270,2013-09-11 16:53:00
11:53 AM,79.0,43.0,28,30.21,10.0,NNE,9.2,-,N/A,,Clear,30,2013-09-11 17:53:00
12:53 PM,79.0,42.1,27,30.21,10.0,North,6.9,-,N/A,,Clear,360,2013-09-11 18:53:00
1:53 PM,79.0,42.1,27,30.21,10.0,North,5.8,-,N/A,,Clear,360,2013-09-11 19:53:00
2:53 PM,80.1,41.0,25,30.22,10.0,NNW,13.8,19.6,N/A,,Clear,340,2013-09-11 20:53:00
3:53 PM,81.0,41.0,24,30.21,10.0,North,9.2,-,N/A,,Clear,10,2013-09-11 21:53:00
4:53 PM,79.0,39.0,24,30.21,10.0,North,10.4,-,N/A,,Clear,10,2013-09-11 22:53:00
5:53 PM,78.1,39.0,25,30.22,10.0,North,10.4,-,N/A,,Clear,360,2013-09-11 23:53:00
6:53 PM,73.0,41.0,31,30.23,10.0,North,6.9,-,N/A,,Clear,360,2013-09-12 00:53:00
7:53 PM,63.0,45.0,52,30.26,10.0,NE,8.1,-,N/A,,Clear,40,2013-09-12 01:53:00
8:53 PM,59.0,46.0,62,30.27,10.0,NE,11.5,-,N/A,,Clear,50,2013-09-12 02:53:00
9:53 PM,57.9,45.0,62,30.28,10.0,NE,11.5,-,N/A,,Clear,50,2013-09-12 03:53:00
10:53 PM,59.0,43.0,55,30.28,10.0,ENE,10.4,-,N/A,,Clear,60,2013-09-12 04:53:00
11:53 PM,57.0,43.0,59,30.30,10.0,ENE,10.4,-,N/A,,Clear,60,2013-09-12 05:53:00